Terug naar catalogus

ONEWEB-0012

ActiefCommunicatiePO
NORAD 44057·PAYLOAD·🇬🇧 United Kingdom

Gelanceerd Feb 27, 2019 vanaf Guiana Space Centre

Loading…

Volgende Passages (komende 24 uur)

TLE

VersSource: CelesTrak SupGP

Epoch: Sep 14, 2026, 20:37 UTC

1 44057C 19010A   26257.85920556  .00000825  00000+0  21596-2 0  2579
2 44057  87.9147 210.9763 0002521  87.3832 299.3459 13.16596525    12

Volg ONEWEB-0012 in realtime met AllMySat

Download on the App Store